FW3754 Weather Reports


Display with metric or nautical units.
time (UTC)temp
F
wind
direction
speed
MPH
gust
MPH
rain 1hr
in
rain 24hr
in
rain mn
in
humidity
%
barometer
mb
20210925223012 84 72 2.0 0.0 0.00 0.00 0.11 79 1014.6
20210925221514 84 112 2.0 0.0 0.00 0.00 0.11 77 1014.2
20210925220012 85 71 2.0 0.0 0.00 0.00 0.11 75 1014.3
20210925214514 85 138 2.0 0.0 0.00 0.00 0.11 74 1014.2
20210925213040 86 148 4.0 0.0 0.00 0.00 0.11 70 1013.8
20210925211511 87 72 3.0 0.0 0.00 0.00 0.11 71 1013.3
20210925210033 87 15 5.0 0.0 0.00 0.00 0.11 68 1013.3
20210925204529 89 42 4.0 0.0 0.00 0.00 0.11 67 1013.2
20210925203013 89 101 4.0 0.0 0.00 0.00 0.11 70 1013.5
20210925201508 88 117 3.0 0.0 0.00 0.00 0.11 75 1013.5
20210925200007 86 55 3.0 0.0 0.00 0.00 0.11 77 1013.8
20210925194507 87 109 3.0 0.0 0.00 0.00 0.11 74 1013.9
20210925193007 88 130 3.0 0.0 0.00 0.00 0.11 72 1014.0
20210925191514 86 92 4.0 0.0 0.00 0.00 0.11 74 1013.6
20210925190025 86 40 3.0 0.0 0.00 0.00 0.11 69 1014.2
20210925184506 84 29 2.0 0.0 0.00 0.00 0.11 78 1014.1
20210925183011 81 48 3.0 0.0 0.00 0.00 0.11 78 1014.3
20210925181516 83 40 3.0 0.0 0.00 0.00 0.11 74 1014.5
20210925180010 85 77 3.0 0.0 0.00 0.00 0.11 73 1014.7
20210925174507 86 92 1.0 0.0 0.00 0.00 0.11 77 1014.4
20210925173008 86 58 3.0 0.0 0.00 0.00 0.11 76 1014.8
20210925171507 86 117 2.0 0.0 0.00 0.00 0.11 76 1014.8
20210925170001 87 53 2.0 0.0 0.00 0.00 0.11 72 1015.0
20210925164645 90 123 2.0 0.0 0.00 0.00 0.11 69 1015.2
20210925163150 91 132 2.0 0.0 0.00 0.00 0.11 69 1015.2
20210925161703 90 326 2.0 0.0 0.00 0.00 0.11 69 1015.3
20210925160259 92 56 1.0 0.0 0.00 0.00 0.11 63 1015.3
20210925154835 92 135 3.0 0.0 0.00 0.00 0.11 63 1015.2
20210925153202 90 128 2.0 0.0 0.00 0.00 0.11 67 1015.3
20210925151552 88 55 2.0 0.0 0.00 0.00 0.11 72 1015.4
20210925150059 86 339 2.0 0.0 0.00 0.00 0.11 72 1015.4
20210925144608 86 13 2.0 0.0 0.00 0.00 0.11 77 1015.5
20210925143104 86 307 1.0 0.0 0.00 0.00 0.11 78 1015.4
20210925141625 84 286 1.0 0.0 0.00 0.00 0.11 80 1015.3
20210925140054 83 16 1.0 0.0 0.00 0.00 0.11 84 1015.4
20210925134627 82 19 2.0 0.0 0.00 0.00 0.11 84 1015.3
20210925133121 81 36 1.0 0.0 0.00 0.00 0.11 86 1015.1
20210925131540 80 37 0.0 0.0 0.00 0.00 0.11 87 1015.2
20210925130032 79 37 1.0 0.0 0.00 0.00 0.11 87 1015.2
20210925124621 78 37 0.0 0.0 0.00 0.00 0.11 87 1015.2
20210925123037 77 37 0.0 0.0 0.00 0.00 0.11 87 1015.1
20210925121519 77 37 1.0 0.0 0.00 0.00 0.11 87 1015.0
20210925120032 76 67 0.0 0.0 0.00 0.00 0.11 87 1014.7
20210925114516 75 67 0.0 0.0 0.00 0.00 0.11 87 1014.5
20210925113029 75 67 0.0 0.0 0.00 0.00 0.11 87 1014.4
20210925111547 75 67 0.0 0.0 0.00 0.00 0.11 87 1014.3
20210925110016 75 67 0.0 0.0 0.00 0.00 0.11 87 1014.1
20210925104518 75 67 0.0 0.0 0.00 0.00 0.11 87 1013.9
20210925103016 75 67 0.0 0.0 0.00 0.00 0.11 87 1013.6
20210925101523 76 67 0.0 0.0 0.00 0.00 0.11 87 1013.6
20210925100022 75 67 0.0 0.0 0.00 0.00 0.11 87 1013.4
20210925094537 76 67 0.0 0.0 0.00 0.00 0.11 87 1013.2
20210925093013 76 67 0.0 0.0 0.00 0.00 0.11 87 1013.2
20210925091523 76 67 0.0 0.0 0.00 0.00 0.11 87 1013.1
20210925090026 76 67 0.0 0.0 0.00 0.00 0.11 87 1013.0
20210925084538 76 67 0.0 0.0 0.00 0.00 0.11 87 1013.0
20210925083011 76 67 2.0 0.0 0.00 0.00 0.11 87 1013.1
20210925081510 76 137 1.0 0.0 0.00 0.00 0.11 87 1013.1
20210925080011 76 137 0.0 0.0 0.00 0.00 0.11 87 1013.2
20210925074514 75 137 0.0 0.0 0.00 0.00 0.11 87 1013.3
20210925073013 75 138 0.0 0.0 0.00 0.00 0.11 87 1013.3
20210925071505 76 138 1.0 0.0 0.00 0.00 0.11 87 1013.5
20210925070005 76 137 0.0 0.0 0.00 0.00 0.11 87 1013.5
20210925064514 76 137 0.0 0.0 0.00 0.00 0.11 87 1013.6
20210925063004 76 137 0.0 0.0 0.00 0.00 0.11 87 1013.8
20210925061503 76 137 0.0 0.0 0.00 0.00 0.11 87 1013.7
20210925060001 76 137 0.0 0.0 0.00 0.00 0.11 87 1013.6
20210925054501 76 137 0.0 0.0 0.00 0.00 0.11 87 1013.6
20210925053116 75 137 0.0 0.0 0.00 0.00 0.11 87 1013.8
20210925051954 76 137 0.0 0.0 0.00 0.00 0.11 87 1013.6
20210925050154 76 137 1.0 0.0 0.00 0.00 0.11 88 1013.9
20210925044704 76 137 0.0 0.0 0.00 0.00 0.11 88 1014.2
20210925043107 76 137 0.0 0.0 0.00 0.00 0.11 88 1014.4
20210925041718 77 137 1.0 0.0 0.00 0.00 0.10 87 1014.4
20210925040052 78 136 3.0 0.0 0.00 0.00 0.06 87 1014.8
20210925034606 78 107 2.0 0.0 0.00 0.00 0.05 86 1015.1
20210925033119 78 22 1.0 0.0 0.00 0.00 0.05 86 1015.0
20210925031619 78 317 0.0 0.0 0.00 0.00 0.05 86 1015.0
20210925030229 78 317 0.0 0.0 0.00 0.00 0.05 85 1014.8
20210925024642 78 317 0.0 0.0 0.00 0.00 0.05 85 1014.9
20210925023116 78 317 0.0 0.0 0.00 0.00 0.05 85 1014.8
20210925021552 78 317 0.0 0.0 0.00 0.00 0.05 84 1014.5
20210925020122 78 317 0.0 0.0 0.00 0.00 0.05 84 1014.2
20210925014556 79 317 0.0 0.0 0.00 0.00 0.05 83 1014.2
20210925013045 79 317 1.0 0.0 0.00 0.00 0.05 82 1013.9
20210925011602 79 319 0.0 0.0 0.00 0.00 0.05 82 1013.9
20210925010033 79 321 1.0 0.0 0.00 0.00 0.05 82 1013.9
20210925004653 79 321 2.0 0.0 0.00 0.00 0.05 84 1014.0
20210925003032 79 338 3.0 0.0 0.00 0.00 0.05 85 1014.0
20210925001552 78 342 6.0 0.0 0.00 0.00 0.05 84 1013.9
20210925000042 79 340 6.0 0.0 0.00 0.00 0.05 84 1013.9
20210924234531 81 33 7.0 0.0 0.00 0.00 0.05 84 1013.9
20210924233056 82 239 1.0 0.0 0.00 0.00 0.05 85 1013.4
20210924231602 82 242 2.0 0.0 0.00 0.00 0.05 84 1013.2
20210924230054 82 207 1.0 0.0 0.00 0.00 0.05 84 1013.2
20210924224558 81 207 2.0 0.0 0.00 0.00 0.05 84 1013.0